Regional Weather Roundup
Issued by NWS

Home | Current Version | Previous Version | Text Only | Print | Product List | Glossary Off
Versions: 1 2 3 4 5 6 7 8 9 10 11 12 13 14 15 16 17 18 19 20 21 22 23 24 25 26 27 28 29 30 31 32 33 34 35 36 37 38 39 40 41 42 43 44 45 46 47 48 49 50

000
ASUS43 KOAX 230110
RWRNE

WEATHER ROUNDUP FOR NEBRASKA
NATIONAL WEATHER SERVICE OMAHA NE
800 PM CDT FRI MAY 22 2015

NOTES: SATELLITE DATA IS BEING USED TO AUGMENT CLOUD COVER ABOVE
       12000 FEET.
       "FAIR" INDICATES FEW OR NO CLOUDS BELOW 12,000 FEET WITH NO
       SIGNIFICANT WEATHER AND/OR OBSTRUCTIONS TO VISIBILITY.

  * THESE STATIONS DO NOT REPORT WEATHER SUCH AS RAIN...SNOW OR FOG.

NEZ001>004-019>022-054>056-230200-
NEBRASKA PANHANDLE

CITY           SKY/WX    TMP DP  RH WIND       PRES   REMARKS
SCOTTSBLUFF    CLOUDY    48  46  93 SE20      30.04S
ALLIANCE       CLOUDY    47  44  90 SE15      30.06S
CHADRON        CLOUDY    50  44  80 SE13      30.07S
KIMBALL          N/A    N/A N/A N/A MISG        N/A
SIDNEY         CLOUDY    46  44  93 SE16G23   30.05S FOG
$$

NEZ057>060-069>072-079>082-230200-
SOUTHWEST NEBRASKA

CITY           SKY/WX    TMP DP  RH WIND       PRES   REMARKS
NORTH PLATTE   LGT RAIN  48  46  93 E16       30.09F
IMPERIAL       LGT RAIN  49  47  93 E16       30.03F
LEXINGTON      DRIZZLE   51  50  96 E10G18    30.11F
MCCOOK         CLOUDY    51  50  96 E13       30.07S FOG
OGALLALA       LGT RAIN  47  46  97 E13G18    30.07S
$$

NEZ005>010-023>029-035>040-094-230200-
NORTH CENTRAL NEBRASKA

CITY           SKY/WX    TMP DP  RH WIND       PRES   REMARKS
VALENTINE      CLOUDY    51  44  77 SE15      30.13F
AINSWORTH      CLOUDY    50  45  81 SE12      30.15S
BROKEN BOW     LGT RAIN  49  47  93 E12       30.13F FOG
O`NEILL        DRIZZLE   52  48  87 SE6       30.17S
ORD            LGT RAIN  50  47  89 SE6       30.16R FOG
THEDFORD       CLOUDY    48  46  90 SE12G17   30.13S
$$

NEZ041-046>049-061>064-073>077-083>087-230200-
SOUTH CENTRAL NEBRASKA

CITY           SKY/WX    TMP DP  RH WIND       PRES   REMARKS
GRAND ISLAND   LGT RAIN  54  48  80 SE8       30.16S
AURORA         LGT RAIN  56  46  69 SE10      30.16S
HASTINGS       LGT RAIN  53  50  89 SE9       30.14F FOG
HEBRON         CLOUDY    59  47  63 SE6       30.15S
HOLDREGE       CLOUDY    51  50  95 SE14      30.11F
KEARNEY *      CLOUDY    52  48  87 E13       30.14S
YORK           CLOUDY    57  46  67 SE7       30.16S
$$

NEZ011>018-030>034-042>045-230200-
NORTHEAST NEBRASKA

CITY           SKY/WX    TMP DP  RH WIND       PRES   REMARKS
NORFOLK        CLOUDY    55  48  77 E6        30.17F
ALBION         DRIZZLE   54  49  85 E6        30.16F
BLAIR          CLOUDY    61  46  58 E6        30.18S
COLUMBUS *     CLOUDY    59  41  51 SE7       30.20S
FREMONT        CLOUDY    63  46  52 E7        30.17F
TEKAMAH        CLOUDY    61  50  67 E8        30.18S
WAYNE          CLOUDY    56  47  72 E10       30.18F
$$

NEZ050>053-065>068-078-088>093-230200-
SOUTHEAST NEBRASKA

CITY           SKY/WX    TMP DP  RH WIND       PRES   REMARKS
LINCOLN        CLOUDY    62  45  53 SE9       30.18S
OMAHA EPPLEY   CLOUDY    65  43  44 SE8       30.17F
BEATRICE       CLOUDY    60  44  54 SE10      30.16S
FALLS CITY     CLOUDY    63  46  54 SE7       30.18S
NEBRASKA CITY  CLOUDY    62  42  49 SE7       30.19R
PLATTSMOUTH    CLOUDY    63  45  52 SE6       30.18S
$$

NEZ044-045-051>053-067-230200-
OMAHA AREA

CITY           SKY/WX    TMP DP  RH WIND       PRES   REMARKS
OMAHA EPPLEY   CLOUDY    65  43  44 SE8       30.17F
BLAIR          CLOUDY    61  46  58 E6        30.18S
FREMONT        CLOUDY    63  46  52 E7        30.17F
MILLARD        CLOUDY    65  46  49 NE7       30.17F
OFFUTT AFB     CLOUDY    64  48  56 SE6       30.17S
PLATTSMOUTH    CLOUDY    63  45  52 SE6       30.18S
WAHOO          CLOUDY    63  45  51 SE7       30.17S
$$



USA.gov is the U.S. government's official web portal to all federal, state and local government web resources and services.